Syracuse, NY

5:52 PM EDT on October 15, 2019 (GMT -0400)
Syracuse Hancock International

Weather History for KSYR - June, 2019

Change the Weather History Date:

Monday, June 10, 2019

  Actual Average Record
Temperature  
Mean Temperature 67 °F 65 °F  
Max Temperature 75 °F 76 °F 94 °F (1974)
Min Temperature 59 °F 55 °F 37 °F (1988)
Degree Days  
Heating Degree Days 0 2  
Month to date heating degree days 29 34  
Since 1 June heating degree days 29 34  
Since 1 July heating degree days 6753 6624  
Cooling Degree Days 2 3  
Month to date cooling degree days 9 24  
Year to date cooling degree days 22 54  
Since 1 June cooling degree days 9 24  
Growing Degree Days 17 (Base 50)    
Moisture  
Dew Point 55 °F    
Average Humidity 67    
Maximum Humidity 97    
Minimum Humidity 36    
Precipitation  
Precipitation 0.96 in 0.11 in 1.63 in (1937)
Month to date precipitation 2.23 1.09  
Year to date precipitation 19.88 15.02  
Snow  
Snow 0.00 in 0.00 in 0.00 in (2002)
Month to date snowfall 0.0 0.0  
Since 1 June snowfall 0.0 0.0  
Since 1 July snowfall 115.0 123.8  
Snow Depth 0.00 in    
Sea Level Pressure  
Sea Level Pressure 29.96 in    
Wind  
Wind Speed 9 mph (East)    
Max Wind Speed 29 mph    
Max Gust Speed 39 mph    
Visibility 8 miles    
Events Rain    
T = Trace of Precipitation, MM = Missing Value Source: NWS Daily Summary

Daily Weather History Graph

Daily Weather History Graph

Search for Another Location

Airport or City:

Astronomy

Jun. 10, 2019 Rise Set
Actual Time 5:24 AM EDT 8:43 PM EDT
Civil Twilight 4:49 AM EDT 9:18 PM EDT
Nautical Twilight 4:03 AM EDT 10:04 PM EDT
Astronomical Twilight 3:07 AM EDT 11:00 PM EDT
Moon 1:18 PM EDT (6/10) 1:49 AM EDT (6/10)
Length of Visible Light 16h 28m
Length of Day
15h 18m
First Quarter, 55% of the Moon is Illuminated
Jun 10
First Quarter
Jun 17
Full
Jun 25
Last Quarter
Jul 2
New
Jul 9
First Quarter

Hourly Weather History & Observations

Time (EDT) Temp. Dew Point Humidity Pressure Visibility Wind Dir Wind Speed Gust Speed Precip Events Conditions
12:54 AM 66.9 °F 48.0 °F 51% 30.15 in 10.0 mi ESE 6.9 mph - N/A   Mostly Cloudy
1:54 AM 63.0 °F 48.0 °F 58% 30.14 in 10.0 mi ESE 4.6 mph - N/A   Mostly Cloudy
2:54 AM 62.1 °F 46.9 °F 58% 30.13 in 10.0 mi East 11.5 mph - N/A   Mostly Cloudy
3:54 AM 62.1 °F 46.0 °F 56% 30.10 in 10.0 mi East 10.4 mph - N/A   Mostly Cloudy
4:54 AM 61.0 °F 46.0 °F 58% 30.10 in 10.0 mi East 5.8 mph - N/A   Mostly Cloudy
5:54 AM 60.1 °F 46.9 °F 62% 30.09 in 10.0 mi ENE 3.5 mph - N/A   Mostly Cloudy
6:54 AM 62.1 °F 46.9 °F 58% 30.09 in 10.0 mi ENE 8.1 mph - N/A   Mostly Cloudy
7:54 AM 66.0 °F 46.9 °F 50% 30.08 in 10.0 mi East 8.1 mph - N/A   Mostly Cloudy
8:54 AM 69.1 °F 48.0 °F 47% 30.06 in 10.0 mi ENE 8.1 mph - N/A   Overcast
9:54 AM 70.0 °F 41.0 °F 35% 30.04 in 10.0 mi SE 11.5 mph - N/A   Overcast
10:54 AM 72.0 °F 44.1 °F 37% 30.02 in 10.0 mi East 11.5 mph - N/A   Overcast
11:54 AM 75.0 °F 48.0 °F 38% 29.99 in 10.0 mi ESE 12.7 mph - N/A   Overcast
12:54 PM 72.0 °F 53.1 °F 51% 29.98 in 10.0 mi NE 6.9 mph - 0.00 in Rain Light Rain
1:48 PM 66.2 °F 59.0 °F 78% 29.98 in 2.0 mi ESE 6.9 mph - 0.12 in Rain Heavy Rain
1:54 PM 66.9 °F 60.1 °F 79% 29.97 in 3.0 mi East 9.2 mph - 0.13 in Rain Rain
2:03 PM 66.0 °F 61.0 °F 84% 29.98 in 2.5 mi ENE 3.5 mph - 0.04 in Rain Heavy Rain
2:31 PM 64.0 °F 62.1 °F 93% 29.96 in 1.5 mi NE 6.9 mph - 0.18 in Rain Heavy Rain
2:54 PM 63.0 °F 60.1 °F 90% 29.94 in 3.0 mi NNE 9.2 mph - 0.35 in Rain Rain
3:22 PM 63.0 °F 59.0 °F 87% 29.93 in 5.0 mi ENE 10.4 mph - 0.03 in Rain Rain
3:54 PM 63.0 °F 60.1 °F 90% 29.92 in 4.0 mi East 9.2 mph - 0.11 in Rain Rain
4:05 PM 63.0 °F 60.1 °F 90% 29.92 in 2.5 mi East 11.5 mph - 0.03 in Rain Rain
4:23 PM 62.1 °F 60.1 °F 93% 29.92 in 3.0 mi East 8.1 mph - 0.09 in Rain Rain
4:54 PM 61.0 °F 59.0 °F 93% 29.89 in 6.0 mi East 9.2 mph - 0.15 in Rain Light Rain
5:01 PM 61.0 °F 59.0 °F 93% 29.90 in 8.0 mi East 10.4 mph - 0.00 in Rain Light Rain
5:54 PM 62.1 °F 60.1 °F 93% 29.86 in 8.0 mi East 9.2 mph - 0.05 in   Overcast
6:54 PM 63.0 °F 61.0 °F 93% 29.84 in 10.0 mi East 8.1 mph - 0.00 in   Overcast
7:54 PM 64.0 °F 62.1 °F 93% 29.82 in 8.0 mi East 3.5 mph - 0.00 in Rain Light Rain
8:02 PM 64.0 °F 62.1 °F 93% 29.83 in 10.0 mi East 4.6 mph - 0.00 in Rain Light Rain
8:54 PM 64.9 °F 63.0 °F 93% 29.79 in 3.0 mi East 6.9 mph - 0.12 in Rain Heavy Rain
9:54 PM 64.9 °F 63.0 °F 93% 29.78 in 10.0 mi East 5.8 mph - 0.02 in Rain Light Rain
10:54 PM 66.0 °F 64.0 °F 93% 29.76 in 10.0 mi ENE 3.5 mph - 0.01 in   Overcast
11:54 PM 68.0 °F 64.0 °F 87% 29.75 in 10.0 mi South 6.9 mph - 0.01 in Rain Light Rain